Location: Владивосток
(43.1151°N, 131.8856°E)
Time: 20:36:26
(UTC+10:00)

LO-87 - Pass Details

Date: 06 July 2022
Orbit: 451 x 466 km, 97.4° (Epoch: 07 August)

Event Time Altitude Azimuth Distance (km) Brightness Sun altitude
Exits shadow 01:04:34 40° 311° (NW) 700 ? -24.1°
Drops below altitude 10° 01:07:05 10° 338° (NNW) 1,624 ? -24.1°
Sets 01:09:11 0° 344° (NNW) 2,508 ? -24.1°
